MDT,Max TemperatureF,Mean TemperatureF,Min TemperatureF,Max Dew PointF,MeanDew PointF,Min DewpointF,Max Humidity, Mean Humidity, Min Humidity, Max Sea Level PressureIn, Mean Sea Level PressureIn, Min Sea Level PressureIn, Max VisibilityMiles, Mean VisibilityMiles, Min VisibilityMiles, Max Wind SpeedMPH, Mean Wind SpeedMPH, Max Gust SpeedMPH,PrecipitationIn, CloudCover, Events, WindDirDegrees
2012-9-1,87,68,48,37,32,27,46,27,14,30.38,30.31,30.24,10,10,10,14,5,18,0.00,0,,259
2012-9-2,87,69,51,54,41,32,52,38,18,30.35,30.30,30.24,10,10,10,13,6,23,0.02,2,,41
2012-9-3,86,68,50,46,42,37,67,41,19,30.38,30.31,30.23,10,10,10,20,5,23,0.00,2,,13
2012-9-4,87,66,46,43,34,27,66,34,14,30.36,30.28,30.19,10,10,5,12,5,17,0.00,1,,351
2012-9-5,84,65,46,37,32,27,46,30,15,30.32,30.26,30.18,10,10,10,15,5,20,0.00,1,,289
2012-9-6,87,69,51,43,36,28,47,30,17,30.31,30.25,30.16,10,10,10,15,5,23,0.00,2,,244
2012-9-7,82,68,53,54,43,37,77,50,21,30.42,30.29,30.22,10,10,9,22,5,30,0.15,3,Thunderstorm,58
2012-9-8,68,59,48,48,45,43,87,66,43,30.52,30.45,30.39,10,10,8,17,9,26,0.07,6,Thunderstorm,148
2012-9-9,77,57,37,45,38,34,87,53,21,30.46,30.40,30.31,10,10,10,13,4,18,0.03,0,,354
2012-9-10,78,60,42,46,41,36,81,51,24,30.37,30.29,30.18,10,10,10,17,3,23,0.00,2,,276
2012-9-11,80,66,53,46,43,39,67,47,26,30.27,30.22,30.16,10,10,7,23,5,29,0.00,4,,209
2012-9-12,59,54,48,52,48,43,94,77,55,30.40,30.27,30.20,10,9,3,14,3,,0.95,7,,137
2012-9-13,66,55,44,45,40,34,93,64,32,30.55,30.46,30.38,10,10,10,18,5,22,0.03,3,,351
2012-9-14,66,52,37,39,35,30,93,59,28,30.56,30.51,30.42,10,10,10,13,4,,0.00,0,,81
2012-9-15,77,56,35,37,33,28,87,50,17,30.49,30.39,30.26,10,10,10,12,4,18,0.00,0,,15
2012-9-16,80,60,39,36,31,21,75,40,13,30.35,30.27,30.19,10,10,10,10,4,16,0.00,0,,4
2012-9-17,78,58,39,39,31,25,81,48,15,30.33,30.22,30.10,10,10,10,33,7,45,0.00,1,,5
2012-9-18,73,52,32,36,31,27,87,49,19,30.42,30.34,30.27,10,10,10,13,3,20,0.00,0,,332
2012-9-19,78,56,35,32,26,19,70,35,11,30.38,30.32,30.26,10,10,10,12,4,,0.00,0,,1
2012-9-20,77,57,37,28,23,19,52,29,12,30.34,30.29,30.22,10,10,10,12,5,,0.00,0,,358
2012-9-21,78,60,41,30,24,21,46,28,12,30.36,30.30,30.25,10,10,10,10,6,18,0.00,0,,345
2012-9-22,80,60,39,34,24,19,49,28,13,30.42,30.36,30.31,10,10,9,18,7,26,0.00,0,,338
2012-9-23,78,60,41,32,26,19,46,29,16,30.45,30.37,30.31,10,10,10,18,6,24,0.00,1,,317
2012-9-24,75,58,42,46,33,25,87,46,19,30.33,30.27,30.18,10,10,8,25,6,41,0.01,3,Thunderstorm,5
2012-9-25,69,54,39,45,42,36,93,71,33,30.27,30.18,30.09,10,10,0,21,6,43,0.07,3,Thunderstorm,171
2012-9-26,71,52,33,43,35,28,93,57,23,30.26,30.21,30.16,10,10,10,14,5,20,0.00,2,,263
2012-9-27,73,55,37,39,33,27,87,48,23,30.32,30.26,30.20,10,10,10,17,6,23,0.00,1,,310
2012-9-28,71,54,37,39,34,28,70,48,25,30.33,30.26,30.19,10,10,10,20,5,24,0.00,2,,321
2012-9-29,71,56,42,45,38,34,81,54,31,30.35,30.28,30.20,10,10,10,18,3,21,0.00,1,Thunderstorm,74
2012-9-30,73,54,35,37,31,21,76,46,17,30.32,30.27,30.20,10,10,9,18,6,25,0.00,0,,17